AB8KN-2 Weather Reports


Display with metric or nautical units.
time (UTC)temp
F
wind
direction
speed
MPH
gust
MPH
rain 1hr
in
rain 24hr
in
rain mn
in
humidity
%
barometer
mb
20260902164057 92 279 2.0 6.0 0.00 0.00 0.00 54 1017.9
20260902163017 92 243 2.0 6.0 0.00 0.00 0.00 55 1018.0
20260902162058 92 292 1.0 2.0 0.00 0.00 0.00 57 1018.0
20260902161018 91 253 1.0 3.0 0.00 0.00 0.00 57 1018.0
20260902160035 91 210 1.0 5.0 0.00 0.00 0.00 58 1018.2
20260902155015 90 240 1.0 4.0 0.00 0.00 0.00 60 1018.2
20260902154036 90 205 1.0 5.0 0.00 0.00 0.00 61 1018.2
20260902153016 90 227 1.0 5.0 0.00 0.00 0.00 61 1018.2
20260902152016 90 203 1.0 3.0 0.00 0.00 0.00 60 1018.3
20260902151016 90 209 1.0 4.0 0.00 0.00 0.00 61 1018.4
20260902150016 89 230 2.0 5.0 0.00 0.00 0.00 62 1018.3
20260902145016 88 207 1.0 3.0 0.00 0.00 0.00 63 1018.3
20260902144016 88 258 1.0 4.0 0.00 0.00 0.00 63 1018.3
20260902143017 87 201 1.0 3.0 0.00 0.00 0.00 65 1018.4
20260902142017 86 213 1.0 4.0 0.00 0.00 0.00 66 1018.3
20260902141057 86 213 2.0 4.0 0.00 0.00 0.00 66 1018.2
20260902140017 86 197 1.0 4.0 0.00 0.00 0.00 66 1018.3
20260902135017 85 259 1.0 5.0 0.00 0.00 0.00 67 1018.4
20260902134017 85 250 1.0 6.0 0.00 0.00 0.00 68 1018.3
20260902133018 84 240 0.0 3.0 0.00 0.00 0.00 69 1018.3
20260902132018 83 219 1.0 3.0 0.00 0.00 0.00 70 1018.3
20260902131016 83 225 1.0 3.0 0.00 0.00 0.00 71 1018.3
20260902130015 83 217 1.0 4.0 0.00 0.00 0.00 71 1018.3
20260902125018 81 225 1.0 3.0 0.00 0.00 0.00 73 1018.2
20260902124057 80 219 0.0 2.0 0.00 0.00 0.00 76 1018.1
20260902123018 78 149 0.0 1.0 0.00 0.00 0.00 79 1018.1
20260902122019 76 165 0.0 1.0 0.00 0.00 0.00 84 1018.0
20260902121019 75 0.0 0.0 0.00 0.00 0.00 87 1018.1
20260902120019 74 81 0.0 1.0 0.00 0.00 0.00 88 1018.1
20260902115016 74 86 0.0 0.0 0.00 0.00 0.00 88 1018.0
20260902114016 73 75 1.0 3.0 0.00 0.00 0.00 89 1018.0
20260902113017 73 120 0.0 1.0 0.00 0.01 0.00 91 1017.9
20260902112018 73 102 0.0 2.0 0.00 0.01 0.00 91 1017.8
20260902111017 73 81 0.0 2.0 0.00 0.01 0.00 91 1017.8
20260902110017 73 0.0 0.0 0.00 0.01 0.00 90 1017.7
20260902105017 73 85 0.0 2.0 0.00 0.01 0.00 90 1017.6
20260902104017 73 164 0.0 1.0 0.00 0.01 0.00 92 1017.6
20260902103018 73 95 0.0 1.0 0.00 0.01 0.00 92 1017.6
20260902102018 73 84 0.0 1.0 0.00 0.01 0.00 92 1017.6
20260902101018 73 65 0.0 0.0 0.00 0.01 0.00 91 1017.6
20260902100036 73 0.0 0.0 0.00 0.01 0.00 91 1017.7
20260902095015 73 94 0.0 1.0 0.00 0.01 0.00 90 1017.7
20260902094016 73 139 0.0 0.0 0.00 0.01 0.00 90 1017.6
20260902093016 74 98 0.0 1.0 0.00 0.01 0.00 90 1017.6
20260902092018 74 0.0 0.0 0.00 0.01 0.00 89 1017.5
20260902091036 74 0.0 0.0 0.00 0.01 0.00 89 1017.5
20260902090016 74 299 0.0 0.0 0.00 0.01 0.00 88 1017.6
20260902085016 75 46 0.0 0.0 0.00 0.01 0.00 87 1017.6
20260902084016 75 254 0.0 1.0 0.00 0.01 0.00 87 1017.5
20260902083039 75 0.0 0.0 0.00 0.01 0.00 86 1017.4
20260902082017 76 82 0.0 1.0 0.00 0.01 0.00 85 1017.4
20260902081040 76 0.0 0.0 0.00 0.01 0.00 85 1017.3
20260902080017 76 0.0 0.0 0.00 0.01 0.00 85 1017.2
20260902075017 76 246 0.0 0.0 0.00 0.01 0.00 84 1017.2
20260902074018 76 0.0 0.0 0.00 0.01 0.00 84 1017.2
20260902073018 76 188 0.0 0.0 0.00 0.01 0.00 84 1017.1
20260902072018 77 0.0 0.0 0.00 0.01 0.00 83 1017.2
20260902071018 77 0.0 0.0 0.00 0.01 0.00 82 1017.1
20260902070015 77 274 0.0 1.0 0.00 0.01 0.00 82 1017.1
20260902065017 78 0.0 0.0 0.00 0.01 0.00 81 1017.1
20260902064015 78 230 0.0 1.0 0.00 0.01 0.00 79 1017.0
20260902063016 79 0.0 0.0 0.00 0.01 0.00 79 1017.0
20260902062016 79 0.0 0.0 0.00 0.01 0.00 78 1016.9
20260902061016 79 236 0.0 1.0 0.00 0.01 0.00 77 1017.0
20260902060036 80 207 0.0 2.0 0.00 0.01 0.00 77 1017.0
20260902055016 80 220 0.0 2.0 0.00 0.01 0.00 76 1017.0
20260902054016 80 0.0 0.0 0.00 0.01 0.00 76 1017.0
20260902053037 80 227 0.0 2.0 0.00 0.01 0.00 75 1016.8
20260902052017 80 220 0.0 2.0 0.00 0.01 0.00 75 1016.8
20260902051017 81 249 0.0 1.0 0.00 0.01 0.00 75 1016.9
20260902050017 81 226 0.0 2.0 0.00 0.01 0.00 75 1016.9
20260902045037 81 239 1.0 3.0 0.00 0.01 0.00 74 1016.8
20260902044017 81 229 1.0 3.0 0.00 0.01 0.00 74 1016.8
20260902043015 82 218 1.0 3.0 0.00 0.01 0.00 73 1016.8
20260902042038 82 205 1.0 3.0 0.00 0.01 0.00 73 1016.8
20260902041035 82 221 1.0 3.0 0.00 0.01 0.00 73 1016.8
20260902040035 82 212 1.0 6.0 0.00 0.01 0.00 72 1016.6
20260902035016 83 245 1.0 5.0 0.00 0.01 0.01 72 1016.7
20260902034015 83 251 1.0 4.0 0.00 0.01 0.01 71 1016.7
20260902033016 83 212 1.0 5.0 0.00 0.01 0.01 70 1016.7
20260902032036 83 220 1.0 4.0 0.00 0.01 0.01 70 1016.7
20260902031036 84 237 1.0 3.0 0.00 0.01 0.01 70 1016.7
20260902030016 83 221 1.0 5.0 0.00 0.01 0.01 70 1016.8
20260902025016 83 227 1.0 6.0 0.00 0.01 0.01 71 1016.7
20260902024017 83 229 1.0 3.0 0.00 0.01 0.01 72 1016.8
20260902023017 84 217 0.0 3.0 0.00 0.01 0.01 72 1016.8
20260902022017 84 223 0.0 2.0 0.00 0.01 0.01 72 1016.8
20260902021017 84 209 0.0 3.0 0.00 0.01 0.01 71 1016.8
20260902020017 84 219 1.0 2.0 0.00 0.01 0.01 71 1016.7
20260902015017 84 219 0.0 2.0 0.00 0.01 0.01 71 1016.7
20260902014015 85 253 0.0 2.0 0.00 0.01 0.01 71 1016.7
20260902013015 85 222 0.0 1.0 0.00 0.01 0.01 70 1016.6
20260902012016 85 207 0.0 2.0 0.00 0.01 0.01 70 1016.6
20260902011018 85 208 0.0 3.0 0.00 0.01 0.01 69 1016.5
20260902010016 86 0.0 0.0 0.00 0.01 0.01 69 1016.5
20260902005016 86 199 0.0 3.0 0.00 0.01 0.01 68 1016.3
20260902004036 86 209 1.0 3.0 0.00 0.01 0.01 67 1016.3
20260902003016 87 207 0.0 1.0 0.00 0.01 0.01 67 1016.3
20260902002017 87 214 0.0 3.0 0.00 0.01 0.01 65 1016.3
20260902001017 88 207 0.0 3.0 0.00 0.01 0.01 64 1016.5
20260902000017 88 212 0.0 2.0 0.00 0.01 0.01 63 1016.6
20260901235017 89 207 1.0 3.0 0.00 0.01 0.01 63 1016.6
20260901234017 89 210 0.0 2.0 0.00 0.01 0.01 63 1016.7
20260901233018 90 200 1.0 3.0 0.00 0.01 0.01 61 1016.8
20260901232018 90 217 1.0 3.0 0.00 0.01 0.01 60 1016.8
20260901231035 91 171 1.0 4.0 0.00 0.01 0.01 59 1016.8
20260901230018 91 222 1.0 3.0 0.00 0.01 0.01 58 1016.9
20260901225015 91 202 1.0 5.0 0.00 0.01 0.01 58 1016.9
20260901224015 91 228 1.0 5.0 0.00 0.01 0.01 57 1017.0
20260901223016 92 208 1.0 5.0 0.00 0.01 0.01 57 1017.0
20260901222016 92 219 2.0 5.0 0.00 0.01 0.01 56 1017.0
20260901221036 92 198 1.0 6.0 0.00 0.01 0.01 56 1017.0
20260901220016 92 238 2.0 6.0 0.00 0.01 0.01 55 1017.0
20260901215016 92 225 1.0 4.0 0.00 0.01 0.01 56 1017.1
20260901214017 92 232 1.0 4.0 0.00 0.01 0.01 56 1017.1
20260901213017 93 196 1.0 4.0 0.00 0.01 0.01 55 1017.1
20260901212017 94 260 1.0 5.0 0.00 0.01 0.01 54 1017.1
20260901211017 95 255 2.0 8.0 0.00 0.01 0.01 52 1017.0
20260901210038 94 263 2.0 5.0 0.00 0.01 0.01 54 1017.0
20260901205017 94 246 1.0 4.0 0.00 0.01 0.01 55 1016.9
20260901204038 93 200 2.0 7.0 0.00 0.01 0.01 57 1016.9
20260901203018 94 218 1.0 4.0 0.00 0.01 0.01 55 1016.9
20260901202018 94 217 2.0 4.0 0.00 0.01 0.01 55 1016.8
20260901201018 93 233 1.0 5.0 0.00 0.01 0.01 56 1016.8
20260901200015 93 196 1.0 5.0 0.00 0.01 0.01 58 1016.7
20260901195035 93 201 3.0 8.0 0.00 0.01 0.01 57 1016.8
20260901194016 94 202 2.0 6.0 0.00 0.01 0.01 54 1016.8
20260901193016 94 193 2.0 6.0 0.00 0.01 0.01 52 1016.8
20260901192015 94 197 2.0 7.0 0.00 0.01 0.01 54 1016.8
20260901191016 94 190 1.0 4.0 0.00 0.01 0.01 55 1017.0
20260901190036 93 155 1.0 6.0 0.00 0.01 0.01 56 1017.2
20260901185016 92 187 1.0 5.0 0.00 0.01 0.01 56 1017.3
20260901184017 91 161 1.0 4.0 0.00 0.01 0.01 57 1017.4
20260901183017 92 113 1.0 4.0 0.00 0.01 0.01 59 1017.5
20260901182016 91 140 1.0 3.0 0.00 0.01 0.01 60 1017.5
20260901181017 91 98 2.0 5.0 0.00 0.01 0.01 60 1017.6
20260901180017 90 144 1.0 4.0 0.00 0.01 0.01 61 1017.6
20260901175037 90 94 2.0 6.0 0.00 0.01 0.01 62 1017.8
20260901174018 89 116 1.0 5.0 0.00 0.01 0.01 63 1018.0
20260901173018 90 137 0.0 3.0 0.00 0.01 0.01 63 1018.2
20260901172018 89 169 1.0 3.0 0.00 0.01 0.01 62 1018.4
20260901171016 88 236 1.0 3.0 0.00 0.01 0.01 64 1018.5
20260901170015 88 230 2.0 6.0 0.00 0.01 0.01 64 1018.5
20260901165018 86 125 0.0 2.0 0.00 0.01 0.01 68 1018.5